Location: Navarre
(52.9016°N, 113.4144°W)
Time: 07:37:29
(UTC+00:00)

Envisat - Pass Details

Date: 08 December 2021
Orbit: 764 x 766 km, 98.2° (Epoch: 25 January)

Event Time Altitude Azimuth Distance (km) Brightness Sun altitude
Rises 13:01:10 0° 13° (NNE) 3,248 6.3 -21.6°
Reaches altitude 10° 13:03:29 10° 12° (NNE) 2,317 5.5 -21.3°
Maximum altitude 13:08:35 76° 288° (WNW) 793 2.9 -20.5°
Drops below altitude 10° 13:13:39 10° 203° (SSW) 2,299 5.4 -19.8°
Sets 13:15:57 0° 202° (SSW) 3,221 6.1 -19.4°
